CZ-7 DEB, 61986

Orbit data source: Space-Track

CZ-7 DEB, 61986 is space debris in LEO originally from a launch on Fri, 15 Nov 2024 UTC launched from the Wenchang Satellite Launch Center (WSC). Debris objects in space refer to the collection of defunct objects orbiting the Earth. Examples of debris include non-operational satellites, rocket bodies, and fragments generated from explosions, collisions, or faulty payload assembly.

Not visible in the next 10 days
CZ-7 DEB details
Identifier
61986, 2024-211D
Orbit
LEO
Last TLE update5 days ago
Origin
Flag of CNCNSA (CN / PRC)
ManufacturerCALT
MissionSpacecraft
Bus & MotorUnknown
MassUnknown
Launch date (UTC)
2024-11-15 (6 days ago)
Launch vehicleUnknown
Launch site
Wenchang Satellite Launch Center (WSC)
Object type
Payload
Rocket body
Debris
Shape & HBRUnknown
Radar Cross SectionRCS unknown

Expand to show TLE details & history

TLE from 5 days ago
0 CZ-7 DEB
1 61986U 24211D   24321.75364574  .06204315  68214-5  58898-2 0  9990
2 61986  41.6383 232.5019 0205265 189.0244 170.6889 15.80640746   164
Epoch: 2024-11-16T18:05Z
Definitive object data (Epoch: 2024-11-16T18:05:14.991Z)
Latitude-0°
Longitude-95.11318°
Altitude464.144 km
Speed7.559 km/s
True Right ascension15h 30m 00s
True Declination0° 00' 00"
Sunlit
Object was in daylight at TLE epoch
Visualization TLE readout
Latitude-41.00846°
Longitude131.98086°
Altitude173.154 km
Speed7.808 km/s
Apparent Right ascension11h 00m 51s
Apparent Declination-64° 37' 53"
Sunlit
Object is in full shadow
Visualization observer readout
Local Sidereal Time03:28:50
Azimuth146.041° SSE
Elevation-45.09°
Doppler factor1
Orbital elements
Apogee altitude468.564 km
Perigee altitude193.14 km
Semi-major axis6,708.989 km
Eccentricity0.0205265
Inclination41.6383°
RAAN232.5019°
Arg. of periapsis189.0244°
True anomaly171.06006°
Mean anomaly170.6889°
Eccentric anomaly170.87541°
Mean motion3.94964 °/min
BSTAR0.0058898
Orbital period91.15 mins
Loading maneuver chart data...
Loading historical data...
Loading historical data...
Loading historical data...
Loading historical data...
Loading historical data...
Loading historical data...
Loading historical data...
Other satellites on launch #211 in the year 2024 (2024-11-15 UTC)

CZ-7 DEB Visibility forecast

Observer location: undefined°, undefined

CZ-7 DEB is not visible in the next 10 days
Span
Click to sort rows by Start time (UTC) header in descending order
Start Az.
Max El. time (UTC)
Max El. Az.
Max El.
End time (UTC)
End Az.
|